[[{"header":{"parameterUnit":"m.s-1","parameterCategory":1,"la1":30.2991,"la2":30.254,"lo1":-89.0895,"lo2":-89.0444,"dy":0.0017,"dx":0.0017,"nx":28,"ny":28,"refTime":"2023-09-25T03:00:00:Z","depth":0,"parameterNumber":2,"parameterNumberName":"U-component_of_WINDS"},"data":[0,0,0,0,0,0,0,0,0,0,0,0,0,0,0,0,0,0,0,0,0,0,0,0,0,0,0,0,0,0,0,0,0,0,0,0,0,0,0,0,0,0,0,0,0,0,0,0,0,0,0,0,0,0,0,0,0,0,1.5438,1.5439,0,1.5458,1.5458,1.5458,1.5451,1.545,1.545,1.5449,1.5468,1.5469,1.547,0,0,0,0,0,0,0,0,0,0,0,0,0,1.5392,1.5393,1.5438,1.5439,1.5439,1.5458,1.5458,1.5458,1.5451,1.545,1.545,1.5449,1.5468,1.5469,1.547,0,0,0,0,0,0,0,0,0,0,0,0,0,1.5412,1.5393,1.5438,1.5437,1.5438,1.5458,1.5458,1.5458,1.5451,1.545,1.545,1.5449,1.5468,1.5469,1.547,1.5492,0,0,1.5475,1.5475,0,0,0,0,0,0,0,0,1.5411,1.5414,1.5437,1.5438,1.5438,1.5451,1.5449,1.547,1.5451,1.5446,1.5449,1.5449,1.5463,1.5465,1.547,1.5493,1.5494,1.5475,1.5476,1.5476,1.5477,0,0,0,0,0,0,0,1.5409,1.5413,1.5446,1.5438,1.5438,1.5435,1.5437,1.5453,1.5458,1.5446,1.5446,1.5448,1.5463,1.5469,1.547,1.5494,1.5475,1.5476,1.5477,1.5477,1.5534,1.5534,0,0,0,0,0,0,1.5408,1.5412,1.5445,1.5447,1.5422,1.5437,1.5439,1.5448,1.5458,1.5459,1.5449,1.5448,1.5467,1.5469,1.5471,1.5495,1.5476,1.5478,1.5478,1.5533,1.5534,1.5534,0,0,0,0,0,0,1.5407,1.5411,1.5445,1.5429,1.5433,1.5438,1.5448,1.5448,1.5454,1.546,1.546,1.5454,1.5466,1.5469,1.5487,1.5496,1.5478,1.5479,1.5532,1.5533,1.5534,1.5545,0,0,0,0,0,0,1.5406,1.5411,1.542,1.5429,1.5434,1.5461,1.5448,1.5449,1.5456,1.5455,1.5464,1.5465,1.5466,1.5484,1.5488,1.5497,1.5481,1.5531,1.5533,1.5534,1.5544,1.5546,1.5549,0,0,0,0,0,1.5404,1.5423,1.5421,1.5425,1.5446,1.5461,1.5464,1.5464,1.5457,1.5466,1.5469,1.5465,1.5494,1.5486,1.549,1.55,1.5531,1.5532,1.5534,1.5543,1.5546,1.5549,0,0,0,0,0,0,1.5416,1.5424,1.5422,1.5444,1.5452,1.546,1.5471,1.5468,1.5478,1.5476,1.5476,1.5478,1.5496,1.55,1.5491,1.552,1.5511,1.5514,1.5517,1.552,1.5522,1.552,1.5482,0,0,0,0,0,1.5421,1.5433,1.544,1.5459,1.5463,1.5466,1.5473,1.5473,1.5481,1.5484,1.5489,1.5496,1.5507,1.5514,1.5524,1.5545,1.5545,1.5553,1.5556,1.5557,1.5559,1.5568,1.5571,1.5539,1.5539,1.5539,0,0,1.5431,1.5438,1.5446,1.5461,1.5467,1.5479,1.5469,1.5483,1.5491,1.5486,1.5502,1.5506,1.5514,1.5532,1.5541,1.5536,1.5568,1.5559,1.5561,1.5561,1.5569,1.5572,1.5575,1.554,1.554,1.554,0,0,1.5456,1.5463,1.5478,1.5484,1.5493,1.5495,1.5498,1.5506,1.5508,1.5524,1.552,1.553,1.5549,1.5554,1.5559,1.5583,1.5579,1.5586,1.5598,1.5606,1.5609,1.5611,1.5618,1.562,1.5588,1.5588,1.5588,0,1.5468,1.5486,1.5487,1.55,1.5506,1.5501,1.5515,1.5521,1.5533,1.5537,1.5531,1.5553,1.5559,1.5577,1.5583,1.5588,1.559,1.5585,1.5608,1.5611,1.5613,1.5619,1.5622,1.5589,1.5589,1.5589,1.5589,0,1.5499,1.5512,1.5523,1.5533,1.5541,1.5555,1.5556,1.5563,1.5561,1.5563,1.5578,1.5584,1.5595,1.5599,1.5598,1.5617,1.5613,1.5609,1.5599,1.5616,1.5622,1.5625,1.559,1.559,1.5589,1.5589,0,0,1.5533,1.5542,1.5546,1.5549,1.5557,1.5567,1.5579,1.5589,1.5594,1.5602,1.5611,1.5626,1.5621,1.5627,1.5626,1.5634,1.565,1.5628,1.5628,1.563,1.5668,1.567,1.5673,1.5647,1.5648,1.5648,1.5667,0,1.5557,1.5579,1.5578,1.5599,1.5609,1.5603,1.5614,1.5619,1.5621,1.5629,1.5631,1.5641,1.5634,1.5637,1.5645,1.5646,1.5657,1.5645,1.5655,1.5655,1.5652,1.5677,1.568,1.5697,1.5669,1.567,1.567,0,1.5588,1.5595,1.5616,1.5621,1.5625,1.5635,1.5642,1.5651,1.5656,1.5656,1.5662,1.5659,1.567,1.5661,1.5676,1.5668,1.5671,1.5673,1.5673,1.5673,1.5663,1.5676,1.5703,1.5705,1.5674,1.5673,1.5673,0,1.5607,1.5623,1.5637,1.564,1.5646,1.5653,1.5656,1.566,1.5665,1.5672,1.5675,1.5683,1.5687,1.5692,1.5692,1.5685,1.5706,1.5697,1.5705,1.5705,1.5709,1.5708,1.5735,1.5714,1.5714,1.5714,1.5713,0,1.5633,1.5646,1.5645,1.5654,1.5667,1.5665,1.5678,1.568,1.5684,1.5692,1.5688,1.5696,1.5695,1.5702,1.5701,1.5712,1.5714,1.5714,1.5713,1.5714,1.5713,1.5715,1.5714,1.5714,1.5714,1.5714,1.5714,0,1.5657,1.5657,1.5671,1.5675,1.5677,1.5686,1.5689,1.5696,1.5697,1.5707,1.5709,1.571,1.5718,1.5717,1.5727,1.5726,1.5739,1.5738,1.5737,1.5736,1.5744,1.5742,1.5772,1.5775,1.5753,1.5753,1.5753,0,1.5672,1.5682,1.5686,1.5691,1.5694,1.5702,1.5706,1.5705,1.571,1.5716,1.5722,1.5729,1.5735,1.5747,1.5749,1.5755,1.5753,1.5763,1.5754,1.5753,1.5751,1.575,1.575,1.5764,1.5765,1.5765,1.5765,0,1.57,1.5699,1.5706,1.5712,1.5718,1.5723,1.5728,1.5732,1.5731,1.5736,1.5744,1.5748,1.5757,1.5763,1.5769,1.5771,1.5767,1.5768,1.577,1.5769,1.5768,1.5767,1.574,1.5767,1.5767,1.5767,1.5766,1.5766,1.5718,1.5725,1.5729,1.5736,1.5739,1.5743,1.575,1.5751,1.5757,1.5764,1.5762,1.577,1.5774,1.5781,1.5783,1.5789,1.5786,1.5789,1.5789,1.579,1.579,1.5768,1.579,1.579,1.579,1.579,1.579,0,1.5744,1.5745,1.5752,1.5758,1.5763,1.5759,1.5764,1.5768,1.5775,1.5779,1.5784,1.5792,1.5798,1.5799,1.5804,1.5809,1.5807,1.581,1.5809,1.5809,1.5794,1.5791,1.5811,1.5811,1.5811,1.5811,1.5811,1.5811,1.5757,1.5768,1.5767,1.5779,1.5781,1.5788,1.5791,1.5794,1.5796,1.5805,1.581,1.5811,1.5813,1.5818,1.5823,1.5823,1.5825,1.5828,1.5827,1.5813,1.5811,1.5809,1.5806,1.5829,1.5829,1.5842,1.5842,1.5842]},{"header":{"parameterUnit":"m.s-1","parameterCategory":1,"la1":30.2991,"la2":30.254,"lo1":-89.0895,"lo2":-89.0444,"dy":0.0017,"dx":0.0017,"nx":28,"ny":28,"refTime":"2023-09-25T03:00:00:Z","depth":0,"parameterNumber":3,"parameterNumberName":"V-component_of_WINDS"},"data":[0,0,0,0,0,0,0,0,0,0,0,0,0,0,0,0,0,0,0,0,0,0,0,0,0,0,0,0,0,0,0,0,0,0,0,0,0,0,0,0,0,0,0,0,0,0,0,0,0,0,0,0,0,0,0,0,0,0,3.5502,3.5503,0,3.5547,3.5547,3.5547,3.5518,3.5516,3.5515,3.5514,3.5554,3.5556,3.5558,0,0,0,0,0,0,0,0,0,0,0,0,0,3.5385,3.5388,3.5502,3.5503,3.5503,3.5546,3.5547,3.5548,3.5518,3.5516,3.5515,3.5513,3.5553,3.5556,3.5558,0,0,0,0,0,0,0,0,0,0,0,0,0,3.5433,3.5389,3.5502,3.5494,3.5494,3.5546,3.5547,3.5548,3.5518,3.5516,3.5514,3.5512,3.5552,3.5555,3.5559,3.5621,0,0,3.5569,3.5571,0,0,0,0,0,0,0,0,3.5431,3.5438,3.5494,3.5494,3.5494,3.5525,3.552,3.5572,3.5519,3.5509,3.5514,3.5511,3.5545,3.5549,3.5562,3.5622,3.5624,3.557,3.5572,3.5573,3.5574,0,0,0,0,0,0,0,3.5427,3.5436,3.552,3.5495,3.5495,3.5486,3.549,3.553,3.5537,3.5509,3.5507,3.5513,3.5545,3.5558,3.5562,3.5625,3.557,3.5573,3.5575,3.5576,3.5736,3.5738,0,0,0,0,0,0,3.5426,3.5433,3.5518,3.5521,3.5457,3.5489,3.5495,3.5517,3.5537,3.5538,3.5515,3.5512,3.5553,3.5558,3.5564,3.5636,3.5573,3.5577,3.5579,3.5734,3.5736,3.5738,0,0,0,0,0,0,3.5423,3.5434,3.5516,3.5477,3.5486,3.5494,3.5519,3.5519,3.5532,3.5541,3.5542,3.5528,3.5552,3.5559,3.5606,3.5637,3.5578,3.5581,3.5731,3.5734,3.5737,3.5781,0,0,0,0,0,0,3.542,3.5433,3.5458,3.5477,3.5489,3.556,3.5521,3.5521,3.5539,3.5535,3.5554,3.5555,3.5551,3.5601,3.561,3.564,3.5584,3.5728,3.5733,3.5736,3.5777,3.5785,3.5793,0,0,0,0,0,3.5416,3.5468,3.546,3.547,3.5521,3.5562,3.5568,3.5565,3.5542,3.5566,3.5571,3.5554,3.5632,3.5607,3.5616,3.5648,3.5726,3.5731,3.5736,3.5773,3.5784,3.5792,0,0,0,0,0,0,3.545,3.547,3.5461,3.5521,3.5541,3.5557,3.5587,3.5576,3.5601,3.5596,3.5588,3.5593,3.5642,3.565,3.5621,3.5707,3.5675,3.5682,3.5701,3.571,3.5718,3.5714,3.5587,0,0,0,0,0,3.5465,3.5499,3.5514,3.5566,3.5576,3.558,3.5598,3.5594,3.5612,3.562,3.5629,3.5646,3.5674,3.5693,3.572,3.5778,3.578,3.5805,3.5812,3.5819,3.5824,3.5854,3.5864,3.5754,3.5754,3.5754,0,0,3.5495,3.5511,3.5532,3.5573,3.5587,3.562,3.5587,3.5624,3.5648,3.5625,3.567,3.5678,3.5696,3.5749,3.5773,3.5757,3.5855,3.5825,3.583,3.5832,3.586,3.587,3.5879,3.5758,3.5757,3.5757,0,0,3.5567,3.5584,3.5627,3.5643,3.5665,3.5667,3.5678,3.5696,3.5701,3.5747,3.573,3.5757,3.5806,3.582,3.5833,3.5909,3.5894,3.5918,3.5958,3.5987,3.5996,3.6003,3.6028,3.6038,3.5924,3.5924,3.5924,0,3.5602,3.5653,3.5651,3.5689,3.5706,3.5688,3.5731,3.5745,3.5775,3.5786,3.5768,3.5829,3.584,3.5895,3.5914,3.5926,3.5936,3.5915,3.5995,3.6003,3.601,3.6033,3.6043,3.5927,3.5926,3.5926,3.5926,0,3.5693,3.5729,3.5761,3.5791,3.5812,3.5853,3.5854,3.5875,3.5868,3.5872,3.5918,3.5931,3.5959,3.5972,3.5966,3.6025,3.6015,3.5997,3.5964,3.6023,3.6045,3.6054,3.5931,3.593,3.5929,3.5928,0,0,3.5787,3.5816,3.5827,3.584,3.5863,3.589,3.5928,3.5957,3.5974,3.5995,3.6025,3.6068,3.605,3.6066,3.606,3.6086,3.6143,3.6064,3.6064,3.6077,3.6207,3.6219,3.623,3.6133,3.6135,3.6137,3.6205,0,3.5859,3.5928,3.5926,3.5989,3.6021,3.6004,3.6037,3.6054,3.6058,3.6084,3.6088,3.6117,3.6093,3.6102,3.6127,3.6131,3.6169,3.6126,3.6159,3.616,3.6153,3.6242,3.6256,3.6319,3.6214,3.6215,3.6216,0,3.5952,3.5977,3.6044,3.6061,3.6074,3.6104,3.613,3.6155,3.6173,3.6174,3.6191,3.6181,3.6218,3.6186,3.6235,3.6206,3.6219,3.6223,3.6226,3.6227,3.6191,3.6244,3.634,3.6349,3.623,3.6229,3.6228,0,3.6011,3.6062,3.6108,3.6119,3.6141,3.6162,3.6172,3.6188,3.6205,3.6227,3.6237,3.6263,3.6276,3.6295,3.6292,3.6269,3.6341,3.6309,3.6341,3.6341,3.6355,3.6354,3.6453,3.6367,3.6367,3.6367,3.6367,0,3.6091,3.6131,3.6134,3.6162,3.6207,3.6204,3.6247,3.6254,3.6268,3.6296,3.6283,3.6308,3.6304,3.6329,3.6326,3.6366,3.6373,3.6373,3.6371,3.6373,3.6373,3.638,3.6375,3.6369,3.6369,3.6368,3.6368,0,3.6164,3.6168,3.6217,3.6234,3.6239,3.627,3.6284,3.6309,3.6312,3.6347,3.6355,3.6359,3.6388,3.6387,3.642,3.6418,3.6466,3.646,3.646,3.6459,3.649,3.6486,3.6595,3.6608,3.6516,3.6517,3.6518,0,3.6214,3.6245,3.6265,3.6283,3.6295,3.6324,3.6342,3.6339,3.6357,3.6379,3.6402,3.6429,3.6451,3.6498,3.6502,3.6527,3.652,3.6557,3.6523,3.6524,3.6518,3.6516,3.6518,3.6563,3.6564,3.6564,3.6565,0,3.63,3.63,3.6327,3.6354,3.6376,3.6397,3.6416,3.6431,3.643,3.6451,3.6481,3.6498,3.6531,3.6558,3.6582,3.6589,3.6576,3.6576,3.6584,3.6585,3.6583,3.6583,3.6476,3.6573,3.6572,3.6572,3.6571,3.6571,3.6362,3.6388,3.6406,3.6436,3.645,3.6468,3.6492,3.6499,3.6524,3.6552,3.6549,3.6581,3.6596,3.6626,3.6636,3.6661,3.6647,3.666,3.6663,3.6665,3.6668,3.6581,3.6665,3.6665,3.6665,3.6664,3.6664,0,3.6446,3.6457,3.6484,3.6512,3.6534,3.6523,3.6543,3.6562,3.6591,3.6607,3.663,3.6663,3.6689,3.6696,3.672,3.6738,3.6733,3.6744,3.6742,3.6744,3.6679,3.6669,3.6748,3.6748,3.6748,3.6748,3.6748,3.6748,3.6492,3.6535,3.6537,3.6587,3.6597,3.663,3.6642,3.6658,3.667,3.6709,3.6731,3.6736,3.6747,3.6773,3.6795,3.6796,3.6805,3.6819,3.6817,3.6757,3.6748,3.674,3.673,3.6821,3.6821,3.6879,3.688,3.688]}]]